Location: *
(58.4167°N, 22.5000°E)
Time: 05:58:09
(UTC+00:00)

Cosmos 389 Rocket - Pass Details

Date: 22 September 2019
Orbit: 444 x 478 km, 81.1° (Epoch: 20 October)

Event Time Altitude Azimuth Distance (km) Brightness Sun altitude
Rises 17:18:29 0° 343° (NNW) 2,462 6.6 -7.0°
Reaches altitude 10° 17:20:34 10° 344° (NNW) 1,584 5.6 -7.3°
Maximum altitude 17:24:01 88° 263° (W) 454 2.4 -7.8°
Drops below altitude 10° 17:27:27 10° 166° (SSE) 1,571 4.9 -8.2°
Sets 17:29:30 0° 167° (SSE) 2,439 5.8 -8.5°
